Location: Caltech
(34.1382°N, 118.1253°W)
Time: 02:11:49
(UTC-07:00)

Cosmos 2219 Rocket - Visible Passes

Search period start: 26 March 2017 00:00
Search period end: 05 April 2017 00:00
Orbit: 829 x 846 km, 71.0° (Epoch: 24 March)

Date Brightness Start Highest point End Pass type
(mag) Time Alt. Az. Time Alt. Az. Time Alt. Az.
26 Mar 3.0 04:30:15 34° SSE 04:32:10 46° ESE 04:37:29 10° NE visible
26 Mar 3.5 06:12:12 10° WSW 06:16:19 21° WNW 06:20:27 10° N visible
27 Mar 3.1 04:14:59 40° SE 04:15:50 42° ESE 04:21:05 10° NE visible
27 Mar 3.4 05:56:44 14° W 05:59:55 22° WNW 06:04:15 10° N visible
28 Mar 3.2 03:59:35 39° ESE 03:59:35 39° ESE 04:04:40 10° NE visible
28 Mar 3.3 05:41:20 19° W 05:43:32 24° WNW 05:48:02 10° N visible
29 Mar 3.6 03:44:05 33° E 03:44:05 33° E 03:48:15 10° NE visible
29 Mar 3.2 05:25:49 24° W 05:27:09 26° WNW 05:31:47 10° N visible
30 Mar 3.9 03:28:30 28° ENE 03:28:30 28° ENE 03:31:48 10° NE visible
30 Mar 3.1 05:10:14 28° WNW 05:10:46 28° WNW 05:15:34 10° N visible
31 Mar 4.3 03:12:51 22° ENE 03:12:51 22° ENE 03:15:21 10° NE visible
31 Mar 3.1 04:54:35 31° WNW 04:54:35 31° WNW 04:59:18 10° N visible
01 Apr 4.5 02:57:08 18° ENE 02:57:08 18° ENE 02:58:54 10° NE visible
01 Apr 3.1 04:38:52 32° NW 04:38:52 32° NW 04:43:03 10° N visible
02 Apr 4.8 02:41:21 14° NE 02:41:21 14° NE 02:42:25 10° NE visible
02 Apr 3.3 04:23:05 31° NNW 04:23:05 31° NNW 04:26:46 10° N visible
03 Apr 5.0 02:25:32 12° NE 02:25:32 12° NE 02:25:56 10° NE visible
03 Apr 3.5 04:07:15 29° NNW 04:07:15 29° NNW 04:10:30 10° N visible
04 Apr 3.7 03:51:23 27° NNW 03:51:23 27° NNW 03:54:13 10° N visible
